COSMOS 1275 DEB, 12658

Orbit data source: Space-Track

COSMOS 1275 DEB, 12658 is space debris in LEO originally from a launch on Thu, 04 Jun 1981 UTC launched from the Plesetsk Missile And Space Complex (PKMTR). Debris objects in space refer to the collection of defunct objects orbiting the Earth. Examples of debris include non-operational satellites, rocket bodies, and fragments generated from explosions, collisions, or faulty payload assembly.

Loading next visibility...
Identifier
12658, 1981-053N
Orbit
LEO
Country
Flag of CISCIS
Related business
Manufacturer
Unknown
Mission
Spacecraft
Bus & Motor
Unknown
Mass
Unknown
Launch date (UTC)
1981-06-04 (45 years ago)
Launch vehicle
Unknown
Launch site
Plesetsk Missile And Space Complex (PKMTR)
Object type
Payload
Rocket body
Debris
Shape & HBR
Unknown shape, 0.2 m
Radar Cross Section
Small (<0.1 m²)

Expand to show TLE details & history
Last TLE update: 14 hours ago

TLE from 14 hours ago
0 COSMOS 1275 DEB
1 12658U 81053N   26048.53134841  .00003766  00000-0  14598-2 0  9999
2 12658  82.9664 238.9991 0035071  85.5963 302.3169 14.29453270273140
Epoch: 2026-02-17T12:45Z
TLE epoch observation values (Epoch: 2026-02-17T12:45:08.502Z)
Latitude
27.38781°
Longitude
-96.15098°
Altitude
783.58 km
Speed
7.471 km/s
True Right ascension
16h 10m 34s
True Declination
27° 14' 53"
Sunlit
Object was in daylight at epoch
Visualization orbit readout
Latitude
Unknown
Longitude
Unknown
Altitude
Unknown
Speed
Unknown
Apparent Right ascension
Unknown
Apparent Declination
Unknown
Sunlit
N/A
Visualization observer readout
Local Sidereal Time
06:01:40
Azimuth
Unknown
Elevation
Unknown
Doppler factor
Unknown
Orbital elements
Apogee altitude
815.773 km
Perigee altitude
765.49 km
Semi-major axis
7,168.769 km
Eccentricity
0.00351
Inclination
82.9664°
RAAN
238.9991°
Arg. of periapsis
85.5963°
True anomaly
301.97647°
Mean anomaly
302.3169°
Eccentric anomaly
302.14676°
Mean motion
3.57583 °/min
Orbital period
100.68 mins
BSTAR
0.0014598
Loading maneuver chart data...
Computing Atmospheric mass density...
Loading historical data...
Loading historical data...
Loading historical data...
Loading historical data...
Loading historical data...
Loading historical data...
Loading historical data...

Documentation

Showing up to 5 results
|